Location: Dal�� Lhota
(48.7500°N, 14.0167°E)
Time: 00:57:33
(UTC+00:00)

Transit 2A - Pass Details

Date: 30 July 2021
Orbit: 594 x 964 km, 66.7° (Epoch: 27 September)

Event Time Altitude Azimuth Distance (km) Brightness Sun altitude
Rises 13:20:06 0° 326° (NNW) 3,167 9.2 49.9°
Reaches altitude 10° 13:22:28 10° 333° (NNW) 2,298 8.5 49.6°
Maximum altitude 13:27:35 47° 47° (NE) 1,077 6.9 48.9°
Drops below altitude 10° 13:33:12 10° 121° (ESE) 2,527 8.6 48.2°
Sets 13:35:54 0° 127° (SE) 3,514 9.3 47.8°
